Weather History for KSLN - March, 2015

Change the Weather History Date:

Monday, March 2, 2015

  Actual Average Record
Temperature  
Mean Temperature 31 °F 41 °F  
Max Temperature 40 °F 52 °F 85 °F (1904)
Min Temperature 21 °F 30 °F -7 °F (1922)
Degree Days  
Heating Degree Days 34 24  
Month to date heating degree days 73 49  
Since 1 July heating degree days 3902 3890  
Cooling Degree Days 0 0  
Month to date cooling degree days 0 0  
Year to date cooling degree days 0 0  
Moisture  
Dew Point 21 °F    
Average Humidity 66    
Maximum Humidity 88    
Minimum Humidity 44    
Precipitation  
Precipitation 0.00 in 0.06 in 1.11 in (1979)
Month to date precipitation 0.00 0.11  
Year to date precipitation 1.32 1.91  
Sea Level Pressure  
Sea Level Pressure 30.28 in    
Wind  
Wind Speed 11 mph (SSE)    
Max Wind Speed 24 mph    
Max Gust Speed 29 mph    
Visibility 9 miles    
Events      
T = Trace of Precipitation, MM = Missing Value Source: NWS Daily Summary

Daily Weather History Graph

Daily Weather History Graph

Search for Another Location

Airport or City:

Trip Planner

Search our weather history database for the weather conditions in past years. The results will help you decide how hot, cold, wet, or windy it might be!

Date:

Astronomy

Mar. 02, 2015 Rise Set
Actual Time 7:01 AM CST 6:24 PM CST
Civil Twilight 6:35 AM CST 6:50 PM CST
Nautical Twilight 6:04 AM CST 7:21 PM CST
Astronomical Twilight 5:33 AM CST 7:52 PM CST
Moon 3:55 PM CST 5:05 AM CST
Length of Visible Light 12h 15m
Length of Day
11h 22m
Waxing Gibbous, 92% of the Moon is Illuminated
Mar 2
Waxing Gibbous
Mar 5
Full
Mar 13
Last Quarter
Mar 20
New
Mar 27
First Quarter

Hourly Weather History & Observations

Time (CST) Temp. Windchill Dew Point Humidity Pressure Visibility Wind Dir Wind Speed Gust Speed Precip Events Conditions
12:53 AM 21.9 °F - 17.1 °F 82% 30.54 in 9.0 mi Calm Calm - N/A   Clear
1:53 AM 21.9 °F - 17.1 °F 82% 30.53 in 9.0 mi Calm Calm - N/A   Clear
2:53 AM 21.9 °F - 17.1 °F 82% 30.51 in 9.0 mi Calm Calm - N/A   Partly Cloudy
3:53 AM 23.0 °F - 19.0 °F 85% 30.50 in 7.0 mi Calm Calm - N/A   Scattered Clouds
4:53 AM 21.9 °F 15.7 °F 18.0 °F 85% 30.48 in 8.0 mi SE 4.6 mph - N/A   Scattered Clouds
5:53 AM 21.9 °F - 18.0 °F 85% 30.49 in 7.0 mi Calm Calm - N/A   Clear
6:53 AM 23.0 °F - 19.0 °F 85% 30.50 in 7.0 mi Calm Calm - N/A   Clear
7:53 AM 24.1 °F - 19.9 °F 84% 30.50 in 5.0 mi Calm Calm - N/A   Clear
8:53 AM 28.4 °F 21.2 °F 21.2 °F 74% 30.43 in 8.0 mi SSE 6.9 mph - N/A   Clear
9:53 AM 34.0 °F 23.4 °F 23.0 °F 64% 30.46 in 10.0 mi SSE 17.3 mph - N/A   Clear
10:53 AM 36.0 °F 25.3 °F 19.9 °F 52% 30.43 in 10.0 mi SSE 19.6 mph - N/A   Clear
11:53 AM 37.9 °F 29.2 °F 19.9 °F 48% 30.40 in 10.0 mi SSE 15.0 mph - N/A   Clear
12:53 PM 37.0 °F 26.7 °F 18.0 °F 46% 30.35 in 10.0 mi SSE 19.6 mph - N/A   Clear
1:53 PM 37.0 °F 27.7 °F 18.0 °F 46% 30.29 in 10.0 mi SSE 16.1 mph - N/A   Clear
2:53 PM 37.0 °F 28.1 °F 18.0 °F 46% 30.25 in 10.0 mi SE 15.0 mph - N/A   Clear
3:53 PM 37.4 °F 27.8 °F 17.6 °F 45% 30.16 in 10.0 mi SSE 17.3 mph - N/A   Clear
4:53 PM 35.1 °F 24.5 °F 19.0 °F 52% 30.17 in 10.0 mi SE 18.4 mph - N/A   Clear
5:53 PM 35.1 °F 25.9 °F 19.9 °F 54% 30.14 in 10.0 mi SSE 13.8 mph - N/A   Clear
6:53 PM 34.0 °F 26.0 °F 21.9 °F 61% 30.11 in 10.0 mi SSE 10.4 mph - N/A   Clear
7:53 PM 34.0 °F 25.0 °F 24.1 °F 67% 30.06 in 10.0 mi SSE 12.7 mph - N/A   Clear
8:53 PM 33.1 °F 23.4 °F 26.1 °F 75% 30.04 in 10.0 mi South 13.8 mph - N/A   Scattered Clouds
9:53 PM 33.1 °F 21.5 °F 25.0 °F 72% 29.98 in 9.0 mi South 19.6 mph 25.3 mph N/A   Partly Cloudy
10:53 PM 33.1 °F 23.4 °F 26.1 °F 75% 29.94 in 7.0 mi South 13.8 mph 19.6 mph N/A   Clear
11:51 PM 33.8 °F 23.2 °F 26.6 °F 75% 29.86 in 6.0 mi South 17.3 mph 25.3 mph N/A   Haze
11:53 PM 33.1 °F 21.9 °F 27.0 °F 78% 29.88 in 6.0 mi South 18.4 mph 25.3 mph N/A   Haze